Theta_e
345 347 349 351 351 350 351 353 352 351 352 351 350 350 349 349 350 350 352 351 351 352 351 350 351 351 351 351 351 350 351 351 350 350 350 350 349 349 349 349 349 348 347 347 346 346 345 345 347 348 347 346 346 346 349 352 353 354 355 355 355 355 354
338 340 343 346 350 351 352 353 353 352 352 351 351 350 349 350 350 350 351 351 350 351 350 350 350 350 350 351 351 351 350 350 350 350 350 350 350 349 349 349 349 347 346 346 346 345 345 345 347 347 348 346 346 346 347 350 352 353 355 354 354 355 354
336 336 337 340 345 349 352 354 353 352 352 351 351 350 349 350 350 350 350 351 351 351 351 350 350 351 350 350 351 350 350 350 350 350 350 351 350 350 349 349 349 348 347 346 345 345 345 345 346 347 348 348 348 347 346 349 352 354 354 354 355 355 354
335 335 336 337 340 346 350 353 353 353 352 351 350 350 349 350 349 349 349 350 351 352 352 351 351 351 351 351 350 350 349 349 349 349 350 350 351 351 350 349 349 348 347 345 345 345 344 345 346 347 348 349 349 348 347 349 352 353 353 353 354 355 353
333 334 334 336 338 343 349 351 353 353 352 352 350 349 350 349 348 349 348 350 351 352 351 351 351 352 351 351 351 350 350 348 348 349 350 350 351 351 350 350 349 348 347 346 345 344 344 345 346 347 348 348 349 348 348 349 351 352 353 353 354 355 355
331 332 333 334 335 340 346 350 352 352 352 352 350 350 350 349 349 348 348 350 350 351 351 351 351 352 352 351 351 350 349 349 349 348 349 350 350 350 350 350 349 348 347 345 345 344 344 344 345 347 347 347 347 348 348 348 349 352 353 353 353 355 356
329 330 331 332 334 336 342 347 350 350 352 352 351 350 349 348 348 347 347 348 350 351 352 352 351 352 352 352 351 351 350 349 349 348 349 350 349 350 349 349 349 348 347 346 344 344 344 344 344 346 345 346 346 347 347 347 347 349 351 353 353 352 353
327 328 328 330 331 332 336 341 344 345 349 351 351 351 349 348 347 347 347 347 349 350 351 351 351 352 352 351 351 351 350 350 350 349 349 350 350 349 348 349 348 347 347 345 344 344 343 343 343 344 345 345 344 345 345 345 346 347 349 351 352 353 354
326 326 326 327 329 331 334 337 338 339 342 345 349 351 350 349 347 347 348 347 347 349 349 350 351 352 352 351 351 351 351 351 351 350 350 350 350 349 348 348 347 347 347 346 345 344 343 343 343 343 344 344 344 344 343 343 344 345 347 348 350 351 354
325 325 325 325 326 329 332 333 335 336 337 339 341 346 349 350 348 346 346 346 346 347 347 348 349 351 351 352 352 352 352 352 351 351 350 350 350 349 349 348 347 347 346 346 346 345 344 343 342 342 343 343 343 343 343 343 342 342 344 345 347 348 349
325 324 324 324 324 326 328 329 332 333 334 335 337 338 342 347 350 347 345 344 345 346 346 346 348 349 350 351 351 351 351 352 351 351 350 350 350 349 349 348 348 347 346 346 346 345 344 343 342 342 341 341 342 342 342 342 341 341 343 343 344 345 346
324 324 324 323 323 324 325 327 329 330 331 332 333 334 336 340 345 347 346 346 346 346 346 345 346 348 349 351 351 351 352 351 351 351 350 350 349 349 349 348 348 347 346 345 346 345 345 344 342 341 340 339 341 341 342 343 341 341 341 342 343 343 345
324 323 323 323 323 323 324 325 326 327 328 329 329 331 333 335 338 341 345 346 347 347 346 346 347 347 349 349 350 351 352 352 351 351 351 350 350 349 349 348 348 348 347 346 345 345 345 344 343 341 341 341 341 342 341 342 342 341 340 342 343 342 343
324 322 322 323 323 323 323 324 325 325 326 327 327 328 330 332 333 335 338 341 343 346 347 347 346 347 349 350 350 351 352 351 351 352 351 351 349 349 349 348 348 348 347 346 345 344 344 344 343 342 341 342 343 343 342 341 342 341 341 340 342 342 342
323 322 322 322 322 323 322 323 324 325 324 325 326 326 327 328 330 331 333 335 338 342 344 346 347 348 349 350 351 351 352 351 351 351 351 351 350 349 348 348 348 347 347 346 346 345 344 344 344 343 342 342 342 342 342 343 342 341 340 340 341 342 342
320 321 321 320 321 322 322 323 324 324 324 325 325 325 325 326 327 328 331 333 335 337 341 344 347 349 349 349 350 352 351 351 350 350 351 350 349 349 349 349 349 348 347 346 346 345 345 344 343 344 344 343 343 342 342 343 342 340 339 339 340 340 342
318 319 319 319 319 319 320 322 324 323 323 324 324 324 324 325 325 326 328 330 333 335 338 341 344 348 350 350 351 352 352 351 350 350 350 350 349 349 348 348 349 348 347 347 346 345 345 345 344 343 344 344 344 344 344 343 342 339 338 339 340 340 341
316 317 317 317 318 318 318 319 322 323 323 323 324 324 324 324 324 325 325 327 330 333 337 339 341 345 349 351 352 352 351 351 350 351 350 350 349 349 348 348 348 348 347 347 346 346 345 346 345 344 344 345 345 345 345 344 342 339 339 339 340 341 341
314 314 315 316 317 317 317 318 319 320 322 324 323 323 323 323 324 324 324 325 328 331 334 337 340 343 347 351 354 353 351 350 351 351 350 350 349 349 349 349 349 348 348 348 347 346 346 346 346 345 345 345 345 345 345 344 342 341 340 340 340 341 341
314 313 314 314 315 316 317 317 317 318 320 323 324 323 322 322 323 323 323 324 326 330 331 334 338 342 344 348 352 354 354 352 351 352 351 350 349 350 350 350 349 349 350 349 348 347 346 346 346 346 345 345 346 346 345 345 344 342 341 341 341 341 341
313 313 313 313 314 315 316 316 316 316 319 321 322 322 322 322 322 323 323 324 326 327 329 331 336 340 342 343 346 350 354 354 353 352 352 352 351 351 351 351 350 350 350 350 350 349 348 347 347 346 345 345 345 346 346 346 344 343 343 341 341 341 341
313 313 313 313 314 315 315 315 315 315 317 319 320 321 321 321 322 322 323 324 325 325 327 330 334 336 338 339 341 344 347 351 353 354 353 353 353 353 353 352 351 350 351 351 350 350 349 348 347 347 346 345 345 345 345 345 344 344 342 342 342 341 341
313 313 313 313 314 314 314 313 314 314 316 317 317 319 320 320 321 322 323 324 324 324 326 329 332 333 333 334 335 338 341 344 348 352 354 355 355 354 354 354 352 351 351 351 351 350 350 350 349 348 347 347 346 345 345 345 345 344 344 342 341 340 340
313 313 313 313 313 313 313 313 313 314 314 315 315 317 317 318 319 321 323 324 324 324 325 328 329 330 330 331 331 333 336 340 342 346 350 354 356 355 354 354 354 353 353 352 351 351 351 350 350 349 349 348 347 347 346 346 346 345 344 344 342 340 340
312 312 312 312 312 312 312 312 313 313 313 314 314 315 315 316 318 320 322 323 323 323 325 326 327 327 328 329 329 330 333 337 340 343 345 349 353 356 355 354 354 354 353 353 352 352 351 351 351 350 350 349 349 348 347 346 347 346 346 345 344 342 340
312 312 312 312 311 312 312 312 312 312 312 313 313 314 314 315 316 318 321 323 323 323 324 325 325 325 326 327 328 329 331 334 338 341 343 345 348 352 355 355 354 353 354 353 353 352 352 352 351 351 350 350 349 349 348 348 347 347 347 346 345 344 342
311 311 311 311 311 311 311 311 312 312 312 312 313 313 313 313 315 317 319 321 323 323 324 324 323 324 325 327 328 328 330 333 337 340 342 344 346 348 352 354 355 354 354 353 353 353 353 352 352 351 352 351 351 351 349 349 349 348 348 347 346 346 344
310 310 310 310 311 311 311 311 311 311 312 311 312 312 312 312 314 316 318 320 321 323 323 323 323 324 324 326 327 329 330 332 336 339 341 343 345 347 348 350 354 355 356 355 355 354 354 354 354 353 353 352 352 352 351 351 350 349 349 349 348 347 346
310 309 309 310 310 309 310 310 310 311 311 311 311 312 312 312 313 315 317 319 320 321 322 323 323 323 324 326 327 329 330 331 334 338 341 342 344 345 346 349 353 356 357 357 357 357 357 356 356 355 355 355 355 354 353 353 352 351 350 349 349 349 347
309 309 309 309 309 309 310 310 310 311 311 311 311 311 312 312 313 315 317 317 318 320 321 322 323 323 324 325 327 329 330 331 333 336 339 341 343 345 347 349 352 356 358 358 358 359 359 359 359 359 358 358 358 357 356 356 356 355 354 352 351 350 349
309 309 309 309 309 309 309 310 310 311 311 311 311 311 312 312 313 314 315 316 317 318 320 322 322 323 324 325 327 329 329 330 332 334 336 338 341 344 348 350 352 356 358 359 359 359 361 361 361 360 360 360 360 360 360 359 358 358 356 355 354 353 352
308 309 308 308 309 309 309 310 310 310 311 311 311 311 312 312 312 313 314 314 316 317 320 321 322 323 323 325 327 327 329 330 331 333 335 336 338 341 346 350 353 356 358 359 359 360 361 362 362 362 361 361 361 361 361 361 360 360 359 358 356 355 354
308 308 308 308 308 309 309 309 310 310 311 311 311 311 312 312 312 312 313 314 315 316 319 321 322 323 323 325 326 327 328 329 331 332 334 335 337 339 343 348 352 354 357 358 359 359 360 361 361 361 361 361 362 362 362 362 362 362 361 360 358 357 355
308 308 308 308 308 309 309 309 310 310 310 311 311 311 312 312 311 312 313 314 315 316 319 321 322 322 323 324 325 327 327 329 331 332 334 335 336 338 341 345 349 351 354 356 358 360 360 361 361 362 362 362 362 362 362 363 363 362 362 361 360 359 357
308 308 308 308 308 308 308 309 309 310 310 310 311 311 311 311 311 312 313 314 315 317 319 321 321 322 323 323 324 326 327 329 331 332 333 335 336 337 339 343 346 349 351 353 356 359 360 360 361 362 363 363 363 364 364 364 363 361 361 360 359 359 358
308 308 307 307 307 307 308 308 309 309 309 310 310 311 311 312 312 313 314 315 315 317 319 320 320 321 323 323 324 325 327 329 330 331 333 335 336 337 339 340 343 346 348 350 352 354 357 358 360 362 362 362 363 363 364 364 362 359 359 360 359 359 358
307 307 307 307 307 307 307 308 308 309 309 310 311 311 311 312 312 313 314 315 315 316 317 319 320 321 322 323 323 324 325 327 329 330 332 334 335 337 338 340 342 344 346 347 348 349 351 353 356 358 359 360 361 361 362 362 361 359 359 359 358 359 358
307 307 307 307 307 308 308 308 308 309 309 310 311 311 312 312 312 313 313 314 314 315 317 318 319 321 321 322 322 323 324 326 328 330 331 333 335 336 338 340 343 345 345 346 347 348 349 351 353 355 357 358 358 359 360 360 360 360 359 359 359 358 358
Wind_Speed
4 5 9 12 14 15 15 18 22 23 22 23 25 26 27 26 26 25 26 30 33 33 33 34 34 33 33 33 33 32 31 31 31 30 29 28 27 26 26 26 25 23 21 19 18 16 14 13 14 15 15 15 15 14 13 11 10 9 8 8 7 7 6
11 8 6 6 11 15 17 20 23 23 23 24 25 26 27 26 27 27 27 32 36 35 36 36 36 35 35 34 33 33 32 32 31 31 30 29 29 28 27 26 26 25 24 21 19 17 15 14 15 15 15 15 15 15 14 13 12 10 9 9 8 9 8
11 10 10 9 8 10 15 19 22 24 25 25 26 27 27 27 29 32 31 32 34 34 34 35 36 36 36 35 34 34 33 32 32 32 31 30 30 28 27 27 26 25 25 24 22 19 16 15 15 16 16 16 16 16 15 14 13 12 10 10 9 9 10
13 13 11 10 10 9 12 17 22 25 24 23 25 27 28 29 30 33 33 32 33 32 32 34 36 35 35 35 35 34 34 34 33 33 31 30 30 29 28 28 26 25 25 25 23 20 18 16 16 16 16 16 16 16 16 15 14 13 12 11 10 10 10
14 14 13 11 10 8 9 14 19 21 22 22 24 24 25 27 29 30 30 30 31 32 34 36 35 32 34 36 34 33 35 35 35 33 32 31 30 30 29 28 27 26 25 25 25 23 20 17 17 17 16 15 15 16 16 16 15 15 13 12 12 11 10
14 14 13 12 12 10 5 11 17 21 22 21 22 23 24 26 27 27 28 28 28 29 31 32 30 29 32 33 31 32 35 35 35 35 33 32 31 31 30 30 29 27 26 25 26 24 22 19 18 18 17 16 15 15 16 16 16 16 15 14 13 12 11
13 14 14 14 14 13 10 4 5 14 21 23 22 22 22 23 25 25 25 26 26 26 26 27 26 26 28 29 28 30 34 35 35 35 34 32 32 31 31 30 30 29 27 26 26 26 25 22 20 19 19 17 17 16 16 15 16 16 16 16 15 15 13
14 14 15 15 15 14 15 16 14 8 3 11 17 20 22 21 22 23 23 22 23 24 24 26 25 24 26 27 28 30 32 31 32 34 34 32 31 31 31 31 31 30 28 27 27 27 26 25 23 22 20 20 19 18 17 17 16 16 17 17 17 17 15
14 14 15 15 15 15 16 19 20 21 19 14 6 7 18 21 20 21 18 14 16 17 18 20 19 20 24 27 28 30 29 27 28 30 32 30 29 29 29 29 30 31 30 28 27 27 28 27 26 24 23 22 22 21 20 19 18 17 18 18 18 18 16
13 14 15 16 15 16 19 22 22 22 22 21 20 13 1 11 19 23 22 22 22 17 16 18 17 16 19 23 25 26 25 25 25 26 28 27 26 27 27 25 26 30 31 28 26 27 28 28 27 27 25 24 24 23 22 22 21 20 19 19 18 18 18
12 13 14 16 17 17 19 21 21 21 20 19 20 21 17 7 10 22 29 31 29 24 24 28 25 20 20 22 23 23 23 24 25 24 25 26 25 26 26 24 23 27 30 28 26 27 28 28 28 28 27 26 25 24 23 23 22 21 21 20 20 20 19
12 12 13 15 16 16 17 18 20 21 21 21 20 20 20 18 8 7 19 24 24 24 29 33 29 24 23 23 24 24 24 24 24 24 25 26 26 25 25 25 24 25 29 29 28 28 28 29 29 30 29 29 28 26 24 23 23 23 22 22 22 22 22
12 12 12 13 13 14 15 17 20 22 22 21 21 20 19 19 18 11 2 7 12 18 24 28 26 23 23 24 25 25 25 25 25 25 25 26 27 27 25 25 25 25 26 29 30 29 28 29 30 32 31 31 30 28 27 25 25 25 25 24 24 24 24
13 13 13 14 14 16 16 15 17 21 22 21 21 21 20 19 18 17 13 8 1 7 14 19 23 23 22 23 24 24 25 26 25 25 26 27 28 29 27 25 25 25 25 27 30 31 30 30 31 32 33 32 32 31 29 28 27 27 27 27 26 26 26
14 15 15 16 16 16 15 14 15 18 20 21 21 22 21 20 19 18 16 14 10 5 2 11 20 24 25 24 25 26 26 25 24 24 27 29 30 32 30 27 27 28 27 29 31 31 30 30 30 31 33 33 33 33 32 31 31 31 30 30 29 29 28
13 14 14 15 15 15 14 14 16 17 19 20 21 22 21 20 20 18 17 15 14 12 8 3 9 18 24 26 26 26 27 28 30 29 29 32 33 34 34 30 28 29 31 32 32 31 31 31 30 30 31 32 34 34 33 33 34 34 34 32 32 31 30
13 13 14 14 14 14 14 15 17 19 20 21 21 21 20 19 19 18 17 16 15 14 12 9 6 7 15 22 24 25 27 30 33 32 32 34 35 35 35 33 30 30 33 33 32 32 33 32 32 31 29 29 32 33 33 35 37 37 37 35 34 33 32
13 13 13 13 13 14 14 15 17 19 20 21 21 21 20 19 19 19 19 18 17 15 14 11 9 7 6 12 18 22 28 30 30 31 33 34 35 35 35 33 31 31 32 32 32 33 33 31 32 34 31 28 29 30 31 35 38 39 38 37 37 35 34
12 13 13 13 13 13 14 15 16 18 19 19 19 20 19 19 19 19 20 21 19 15 15 14 10 8 7 6 10 17 26 29 28 30 32 33 34 35 34 33 32 32 31 31 30 31 33 33 33 35 33 30 29 30 30 32 37 40 39 38 38 37 36
11 11 12 12 12 13 14 16 17 17 18 18 18 19 18 18 19 18 20 22 19 15 16 17 13 10 10 8 6 9 19 26 27 28 30 33 34 33 32 32 33 33 29 27 27 29 34 35 32 33 36 34 33 33 32 31 35 39 39 39 39 38 37
10 11 11 11 12 14 16 17 18 19 19 18 18 18 18 19 20 20 20 19 17 17 18 17 13 12 12 11 9 6 8 18 25 27 28 31 32 31 32 32 34 33 29 25 24 28 34 34 30 32 36 37 35 34 32 33 36 38 38 39 38 38 37
9 10 11 11 13 15 16 17 17 19 20 19 18 17 18 19 20 21 21 18 16 19 20 16 12 13 14 14 12 10 7 7 15 22 26 27 27 28 29 31 34 36 32 27 24 24 28 30 30 30 33 35 34 32 32 35 37 37 39 39 38 37 36
9 9 11 12 13 15 16 16 17 17 18 19 18 17 17 19 19 19 20 18 16 18 18 14 13 13 15 15 15 14 12 10 9 11 17 22 24 26 28 29 33 34 30 27 25 24 24 26 28 29 30 31 32 34 36 39 39 39 39 39 38 36 36
10 11 11 12 14 15 16 17 17 17 17 17 18 17 18 20 19 18 18 18 17 17 15 12 13 15 15 16 17 18 15 12 10 10 11 15 20 25 27 27 28 28 26 26 26 26 25 25 25 27 27 28 31 34 37 39 39 39 39 39 38 37 37
11 12 12 13 14 15 16 17 17 17 16 16 17 19 19 19 19 17 16 16 17 17 15 13 13 15 17 18 19 19 18 15 12 11 10 12 16 21 25 25 24 23 23 24 25 26 25 24 23 24 26 27 29 33 36 35 35 36 38 38 38 37 38
12 13 13 13 14 15 16 17 16 17 17 16 16 18 19 19 18 17 16 16 16 16 16 15 16 16 17 19 19 19 18 17 15 12 11 12 13 16 20 24 25 23 22 23 24 25 24 24 24 24 25 26 27 29 32 33 32 33 36 38 37 37 38
14 15 15 15 15 15 16 16 16 16 17 17 16 16 17 18 17 17 17 16 16 15 15 17 18 18 17 18 19 19 19 18 16 14 13 12 12 14 16 19 22 23 23 23 24 24 24 24 25 25 26 26 26 27 29 31 32 33 35 37 37 37 37
15 16 17 17 15 14 15 17 17 18 17 17 16 15 15 16 17 18 18 17 17 17 17 18 19 19 19 18 19 20 21 20 17 16 15 14 13 15 18 19 21 24 24 24 24 24 25 25 25 26 26 26 26 27 28 31 33 33 34 36 38 37 37
16 17 19 19 18 16 16 17 19 20 19 17 16 15 14 15 16 16 16 18 20 19 19 19 18 19 19 19 18 19 20 20 18 16 15 15 15 17 18 18 21 25 26 26 25 24 25 25 25 26 26 26 26 27 27 29 32 35 36 37 37 38 38
16 18 18 20 21 19 17 17 19 21 21 18 16 15 14 14 15 16 16 18 21 21 20 20 20 18 18 18 17 17 18 18 17 16 14 13 16 18 18 17 20 23 26 28 28 26 25 25 25 25 26 26 26 26 27 27 29 34 37 38 38 38 38
17 18 18 19 21 21 19 18 19 21 23 21 18 16 15 13 14 17 18 18 20 21 21 20 20 20 18 17 17 18 17 17 17 17 15 13 15 18 18 18 19 21 22 26 28 28 27 26 27 27 28 27 27 26 26 26 26 30 34 37 38 38 39
17 18 19 19 19 20 20 20 20 20 23 23 20 17 15 14 14 17 20 20 19 20 20 19 20 20 19 18 17 18 18 18 17 17 16 14 14 17 19 19 19 19 20 23 26 28 27 27 28 29 29 29 29 28 26 24 24 26 29 32 36 38 39
18 18 19 19 19 20 20 20 21 21 22 24 22 17 15 15 16 17 19 20 20 20 19 18 18 19 19 19 18 17 17 17 17 17 17 15 14 16 19 20 20 19 20 22 24 26 27 28 29 28 28 29 29 28 27 25 24 24 25 26 30 36 38
19 19 20 19 20 20 20 20 21 22 23 25 24 19 16 17 18 18 19 20 20 20 19 18 18 18 18 19 19 17 16 17 17 17 17 15 14 15 18 20 20 20 21 23 24 25 27 28 28 27 27 27 26 25 25 24 24 26 26 25 26 31 37
20 20 20 20 21 22 22 21 22 23 25 26 26 23 19 19 19 19 19 19 19 18 18 19 19 18 18 18 19 19 17 16 17 18 17 16 15 16 18 21 21 22 23 24 25 26 27 28 28 27 27 26 25 24 22 22 26 32 34 32 31 33 36
21 22 23 23 23 24 24 24 24 25 26 27 27 25 22 20 20 18 17 17 17 17 18 19 19 19 18 16 17 18 18 17 18 18 18 17 18 18 20 22 23 24 26 28 29 30 30 31 31 32 30 27 26 26 25 28 34 39 37 35 36 37 38
23 24 25 25 25 25 26 26 25 26 27 27 27 26 25 22 20 19 17 16 17 17 19 19 19 19 18 16 17 19 20 21 21 21 20 19 19 20 22 23 24 25 27 29 31 33 35 36 37 38 38 36 35 33 30 32 37 39 36 34 35 35 36
26 27 27 26 25 25 25 25 26 27 28 27 27 27 26 24 23 20 18 17 18 18 19 19 18 18 18 18 18 19 21 22 23 24 24 21 20 22 23 23 23 25 27 28 28 30 33 35 36 38 40 42 44 43 39 37 36 36 35 36 36 34 33
Wind_Direction
352 239 217 206 200 198 196 194 197 201 199 195 195 197 196 194 191 189 190 195 201 204 206 207 209 210 211 213 215 217 218 219 219 219 221 223 223 223 224 225 227 231 233 236 241 245 249 248 243 239 236 233 231 230 228 228 227 229 236 237 239 244 243
9 350 319 258 218 206 200 195 195 198 198 197 195 195 196 194 191 190 191 197 202 205 207 208 209 211 213 214 215 216 218 218 219 219 220 223 225 226 227 227 229 232 235 238 242 247 251 250 244 240 239 236 235 234 232 230 229 231 237 238 241 245 243
5 356 345 323 281 233 208 196 196 201 200 198 196 194 194 193 192 194 195 197 200 203 205 206 209 211 212 213 214 216 218 218 219 220 220 223 225 225 227 229 231 234 237 239 242 247 252 251 245 242 241 240 239 238 235 230 228 231 236 239 245 246 242
5 357 347 335 320 277 228 204 200 204 203 200 198 196 195 194 195 198 198 197 198 199 201 205 207 209 210 212 213 214 217 218 220 221 221 222 225 226 227 231 233 234 235 238 240 244 250 251 247 244 243 243 242 241 237 232 230 232 235 240 246 249 246
7 2 357 351 340 306 244 214 204 205 206 203 200 198 198 196 196 198 199 198 198 199 202 206 206 205 208 211 211 213 217 219 220 221 221 223 226 228 229 231 233 234 235 237 238 241 246 250 247 244 244 243 243 244 241 237 233 233 235 238 244 249 249
8 7 5 1 354 345 285 218 206 206 208 205 201 198 198 197 197 200 199 199 200 201 203 205 203 202 206 208 208 211 216 218 220 222 223 225 227 229 230 232 233 234 235 236 237 239 243 246 245 243 243 244 243 243 244 242 238 235 235 237 240 244 243
10 9 9 10 6 8 13 10 212 213 213 210 205 198 196 198 200 201 202 200 200 199 200 201 201 201 204 204 205 210 215 217 219 222 223 225 228 229 231 232 234 235 235 236 238 238 240 242 244 243 243 245 245 246 248 248 244 240 239 239 240 242 243
12 10 10 13 14 17 23 26 28 18 256 219 211 198 192 196 197 198 201 201 201 203 203 202 202 202 204 205 206 210 214 214 217 220 221 222 225 228 230 233 235 235 234 236 237 238 238 240 242 243 243 245 247 249 252 254 252 246 243 243 243 244 244
12 11 12 15 18 23 25 29 32 29 26 18 351 206 194 193 189 192 194 191 199 210 210 208 209 207 206 207 209 211 212 211 212 217 219 218 220 224 227 230 233 234 234 234 235 236 238 239 241 243 243 245 248 251 253 255 256 252 248 248 248 247 246
13 12 14 16 18 23 26 29 32 29 26 23 18 17 319 190 181 184 190 190 195 203 208 213 220 221 214 211 212 212 210 209 210 213 214 215 217 220 222 224 228 233 234 232 231 235 238 238 239 242 244 245 247 250 252 254 255 253 251 251 251 251 250
16 14 14 16 18 22 24 27 28 25 23 22 22 22 18 30 162 180 189 193 194 195 202 209 212 215 216 215 216 214 212 211 211 211 212 213 216 219 220 218 220 230 234 230 228 233 237 238 238 240 241 243 245 248 251 253 254 254 253 253 253 253 252
20 18 16 16 17 20 23 24 22 21 21 21 22 22 21 22 37 172 191 195 194 196 205 209 207 209 212 212 213 215 214 213 212 211 212 214 216 217 218 217 217 224 231 231 229 232 235 237 238 239 240 241 242 246 249 251 252 253 254 254 254 254 254
25 23 20 19 18 19 21 20 19 17 17 18 19 19 21 23 24 28 74 196 201 206 211 211 210 215 217 213 213 214 214 214 213 212 213 214 217 218 217 218 218 219 225 230 232 232 233 235 238 241 241 241 242 244 247 249 250 251 253 253 253 255 255
24 22 21 20 19 19 17 14 14 14 14 14 14 15 19 21 20 21 25 28 39 217 220 216 214 218 218 215 215 215 216 216 214 214 215 216 219 221 219 218 219 219 222 227 231 232 233 234 237 240 242 242 244 245 246 247 247 248 250 251 251 253 254
22 20 18 17 17 16 13 11 8 7 8 10 12 13 14 15 14 12 13 17 20 18 259 222 219 219 218 215 214 216 216 216 214 215 218 220 223 226 224 221 222 223 224 228 232 233 232 233 235 238 241 242 244 246 245 245 246 246 247 248 248 249 251
21 19 17 15 14 10 8 8 5 3 4 6 9 10 8 7 7 6 6 6 8 11 8 318 233 224 220 218 216 216 217 219 220 221 222 224 227 229 229 226 225 226 228 230 232 233 233 234 234 234 237 240 243 244 244 244 246 247 248 248 248 249 249
16 15 14 13 10 5 5 4 2 3 4 3 3 4 3 0 358 360 2 2 1 1 0 356 331 261 232 226 221 217 219 222 224 224 226 229 230 230 230 229 225 227 230 231 231 232 233 233 234 234 234 235 239 241 241 243 246 248 250 250 249 248 247
11 8 6 7 5 3 3 1 359 360 360 360 359 358 357 354 352 355 357 356 357 355 355 357 353 339 288 246 231 222 221 224 224 224 227 229 229 229 230 228 226 228 230 229 229 230 230 230 232 234 232 231 233 235 237 241 247 249 250 251 251 249 247
9 5 2 2 359 359 359 355 354 355 353 354 355 354 353 350 347 348 351 356 359 352 351 357 356 355 348 300 257 235 227 224 223 224 226 228 229 229 229 227 227 228 228 227 227 228 229 229 229 232 232 229 230 232 233 239 245 249 250 251 251 251 248
6 1 359 358 356 356 354 348 347 349 349 349 349 347 347 348 346 342 345 354 358 350 351 356 355 356 0 349 312 260 235 227 224 224 226 229 229 228 227 226 228 228 226 225 224 225 230 230 227 230 233 231 231 233 234 236 243 247 249 250 250 250 249
1 357 353 352 352 350 349 346 343 343 343 344 344 342 343 345 346 342 342 348 350 349 353 356 355 356 359 360 355 325 259 235 230 227 227 229 228 227 226 227 229 229 225 222 221 225 231 231 227 229 234 234 232 233 235 238 241 245 248 249 249 249 247
352 349 346 344 344 343 343 343 342 339 337 336 337 339 340 341 342 339 338 341 346 350 353 353 354 358 356 355 356 350 334 279 246 235 230 228 225 225 225 226 230 231 227 224 224 226 230 230 228 229 233 234 232 232 235 240 242 243 245 248 248 246 245
341 337 336 334 334 335 335 336 337 334 332 331 332 336 337 337 337 335 334 336 341 346 349 350 352 353 350 348 346 344 339 329 302 265 243 231 224 223 225 226 230 231 228 224 225 227 227 227 228 229 231 232 232 232 236 241 243 243 244 247 246 243 241
333 331 330 328 327 328 330 331 331 329 328 328 330 333 334 333 333 331 331 334 337 338 341 348 350 347 342 337 337 339 338 329 320 308 279 251 236 230 228 228 229 229 226 224 227 229 230 230 230 231 231 230 231 234 237 241 244 245 245 246 244 241 239
326 325 324 323 323 323 325 325 322 322 325 326 327 330 330 329 329 328 326 329 332 332 334 341 344 341 336 333 331 333 335 330 319 311 297 276 257 246 238 234 231 228 224 226 229 231 233 234 233 233 233 233 233 236 239 241 243 245 246 247 244 240 238
321 320 319 318 319 319 319 319 317 318 322 323 322 325 327 327 324 322 322 324 325 325 327 332 334 332 331 332 331 327 326 325 319 310 297 280 271 264 252 241 236 231 227 227 231 234 235 235 234 236 237 236 236 237 239 240 241 243 247 248 245 241 239
315 314 313 312 314 315 314 314 313 312 314 317 317 318 322 325 321 316 317 318 316 317 320 323 326 327 327 328 327 324 322 320 315 305 294 283 275 274 268 255 243 236 231 230 232 234 234 234 235 237 240 240 239 238 238 240 241 242 246 248 247 243 239
312 311 312 311 310 310 310 310 310 308 308 311 313 312 315 320 316 311 312 311 308 311 316 317 319 322 324 324 323 322 322 320 315 305 300 297 285 270 265 258 247 239 234 232 231 230 231 232 233 237 240 242 241 240 239 241 243 243 244 247 248 245 240
308 307 309 310 308 310 310 306 305 305 305 307 309 308 309 312 309 305 303 302 303 308 313 315 315 316 319 320 318 317 318 317 314 308 306 305 293 276 266 259 251 244 238 233 230 229 229 230 231 235 240 242 242 241 239 240 244 245 245 246 247 246 243
302 302 303 304 304 306 306 302 300 300 301 303 304 303 302 302 302 300 295 294 300 307 309 311 313 313 314 314 313 313 314 312 307 305 304 303 295 287 280 270 262 254 243 236 233 231 230 231 232 233 237 239 241 242 240 239 242 246 247 246 246 246 245
298 297 298 298 299 301 301 298 296 296 297 298 300 299 295 292 295 295 292 292 298 302 303 306 310 310 309 308 308 310 311 308 304 301 300 298 291 284 277 267 261 256 246 238 236 234 233 235 236 237 238 240 240 241 240 238 238 242 246 247 246 246 246
295 294 294 293 294 296 298 297 295 293 293 294 296 295 290 286 288 290 291 293 295 296 296 299 302 305 305 303 301 305 308 306 302 298 297 296 291 284 276 267 259 255 250 244 240 238 236 236 238 238 240 242 243 243 242 238 235 237 241 244 245 245 246
294 293 291 291 292 293 293 293 292 290 290 292 293 292 286 283 285 287 290 292 293 292 293 292 292 296 300 299 297 299 303 303 299 295 295 297 295 289 281 270 260 257 256 251 245 242 239 238 239 239 239 241 243 244 243 239 236 236 236 236 239 242 243
292 291 290 289 290 289 287 286 286 287 288 288 289 290 285 281 283 286 288 289 291 291 289 288 287 289 292 295 295 295 297 299 295 291 291 292 290 286 281 272 263 258 255 251 248 247 244 241 239 237 236 237 238 239 239 236 234 235 233 228 229 237 240
290 290 289 290 290 288 285 282 282 283 284 284 286 288 284 280 281 283 282 283 286 287 285 285 287 286 286 289 291 291 293 297 294 289 288 290 289 282 277 272 266 261 258 254 251 249 250 251 249 244 239 237 235 232 230 229 234 241 241 236 234 236 239
292 291 292 292 291 288 284 282 280 280 280 281 283 285 283 280 279 278 275 276 280 282 282 283 286 286 285 284 286 289 294 296 293 288 286 288 290 288 284 278 271 266 262 260 258 255 254 256 257 255 253 251 247 239 232 234 243 250 251 246 243 243 243
294 294 294 293 290 287 284 283 281 280 279 279 280 281 281 280 278 275 272 271 275 277 277 277 278 280 281 280 283 289 294 295 294 290 286 285 285 286 287 286 281 274 269 267 268 268 264 260 258 256 255 255 255 253 250 248 252 256 256 253 250 249 247
294 293 292 291 287 285 283 282 280 279 279 279 278 278 280 280 278 275 272 272 273 274 273 271 270 270 272 274 278 285 289 290 289 286 283 283 283 281 281 282 283 282 280 277 276 277 275 270 264 259 256 254 253 253 254 255 256 258 257 255 253 252 251